Estación de Casablanca

Ultimos registro cada 15 minutos 62
Estación Fecha / Hora Temperatura Humedad Lluvia Velocidad Dirección Radiación Presion
62 Casablanca 05-05-2026 15:15 21,2 58,1 0 0 352 243,1 984,3
61 Casablanca 05-05-2026 15:00 20,9 58,5 0 0 6 171,9 984,2
60 Casablanca 05-05-2026 14:45 20,3 59,8 0 0 351 155,6 984,2
59 Casablanca 05-05-2026 14:30 21 58,9 0 0 1 169,4 983,9
58 Casablanca 05-05-2026 14:15 22 55,9 0 0 350 199,4 983,8
57 Casablanca 05-05-2026 14:00 22,2 56,6 0 0 355 230,6 983,7
56 Casablanca 05-05-2026 13:45 23,2 53,4 0 0 344 345,6 983,7
55 Casablanca 05-05-2026 13:30 23,9 51,5 0 0 337 328,1 983,5
54 Casablanca 05-05-2026 13:15 23,6 53,4 0 0 324 450,6 983,4
53 Casablanca 05-05-2026 13:00 24,8 52,2 0 0 340 446,9 983,4
52 Casablanca 05-05-2026 12:45 24,6 52 0 0 305 490,6 983,6
51 Casablanca 05-05-2026 12:30 23,3 54,2 0 0 248 395,6 983,5
50 Casablanca 05-05-2026 12:15 23,9 51,9 0 0 310 310,6 983,5
49 Casablanca 05-05-2026 12:00 23,4 49,4 0 0 338 448,1 983,5
48 Casablanca 05-05-2026 11:45 24,8 48 0 0 314 618,1 983,6
47 Casablanca 05-05-2026 11:30 22,7 55,2 0 0 300 578,1 983,6
46 Casablanca 05-05-2026 11:15 22,3 56,1 0 0 306 530,6 983,7
45 Casablanca 05-05-2026 11:00 21,2 59,5 0 0 317 290,6 983,8
44 Casablanca 05-05-2026 10:45 20,7 62,5 0 0 347 571,9 983,9
43 Casablanca 05-05-2026 10:30 19,7 62,9 0 0 320 161,9 984
42 Casablanca 05-05-2026 10:15 17,9 68,2 0 0 305 205,6 984
41 Casablanca 05-05-2026 10:00 17,4 69 0 0 291 376,9 984,2
40 Casablanca 05-05-2026 09:45 15,2 75,5 0 0 279 254,4 984,3
39 Casablanca 05-05-2026 09:30 12,9 80,8 0 0 258 319,4 984,3
38 Casablanca 05-05-2026 09:15 11,9 83,4 0 0 227 270,6 984,4
37 Casablanca 05-05-2026 09:00 10,8 88,2 0 0 226 246,9 984,5
36 Casablanca 05-05-2026 08:45 8,8 93,6 0 0 220 216,9 984,7
35 Casablanca 05-05-2026 08:30 7,8 98,8 0 0 220 114,4 984,9
34 Casablanca 05-05-2026 08:15 6,6 100 0 0 220 69,4 985
33 Casablanca 05-05-2026 08:00 6 100 0 0 220 59,4 985,1
32 Casablanca 05-05-2026 07:45 5,4 100 0 0 220 13,1 985,2
31 Casablanca 05-05-2026 07:30 4,7 100 0 0 220 3,1 985,3
30 Casablanca 05-05-2026 07:15 4,5 100 0 0 220 0,6 985,5
29 Casablanca 05-05-2026 07:00 4,8 100 0 0 220 0,6 985,5
28 Casablanca 05-05-2026 06:45 5,1 100 0 0 220 0,6 985,5
27 Casablanca 05-05-2026 06:30 5,9 100 0 0 216 0,6 985,9
26 Casablanca 05-05-2026 06:15 5 100 0 0 192 0,6 985,5
25 Casablanca 05-05-2026 06:00 4,9 100 0 0 192 0,6 985,4
24 Casablanca 05-05-2026 05:45 4,6 100 0 0 192 0,6 985,3
23 Casablanca 05-05-2026 05:30 5 100 0 0 192 0,6 985,3
22 Casablanca 05-05-2026 05:15 4,9 99,9 0 0 192 0,6 985,2
21 Casablanca 05-05-2026 05:00 5,1 99,7 0 0 192 0,6 985,2
20 Casablanca 05-05-2026 04:45 5,9 99,9 0 0 192 0,6 985,2
19 Casablanca 05-05-2026 04:30 5 99,8 0 0 222 0,6 985,1
18 Casablanca 05-05-2026 04:15 3,9 99,4 0 0 222 0,6 985,2
17 Casablanca 05-05-2026 04:00 4,2 99,4 0 0 222 0,6 985,4
16 Casablanca 05-05-2026 03:45 4,9 99,5 0 0 222 0,6 985,3
15 Casablanca 05-05-2026 03:30 4,2 99 0 0 222 0,6 985,2
14 Casablanca 05-05-2026 03:15 4,9 98,7 0 0 222 0,6 985
13 Casablanca 05-05-2026 03:00 5,4 99,2 0 0 222 0,6 985,1
12 Casablanca 05-05-2026 02:45 5 99,2 0 0 222 0,6 985,4
11 Casablanca 05-05-2026 02:30 5,8 99 0 0 222 0,6 985,3
10 Casablanca 05-05-2026 02:15 5,5 98,7 0 0 219 0,6 985,4
9 Casablanca 05-05-2026 02:00 5,4 98,7 0 0 213 0,6 985,4
8 Casablanca 05-05-2026 01:45 5,4 98,1 0 0 209 0,6 985,8
7 Casablanca 05-05-2026 01:30 6 98,1 0 0 209 0,6 985,9
6 Casablanca 05-05-2026 01:15 6 97,5 0 0 209 0,6 986,1
5 Casablanca 05-05-2026 01:00 7,2 97,4 0 0 209 0,6 986,2
4 Casablanca 05-05-2026 00:45 7,6 97,7 0 0 209 0,6 986,2
3 Casablanca 05-05-2026 00:30 7,2 97,4 0 0 209 0,6 986,3
2 Casablanca 05-05-2026 00:15 7,1 96,9 0 0 209 0,6 986,5
1 Casablanca 05-05-2026 00:00 7,3 96,9 0 0 209 0,6 986,4